Погода в Сычевке

Россия / Алтайский край     52°02′53″N   84°46′40″E
темп.,
°C
ветер,
м/с
пор.,
м/с
влажн.,
%
обл.,
%
осадки,
мм/ч
давл.,
гПа
погр.,
м
13 июня, вс
вс1301:00+9юз2398100 5.7 101690
04:00+9зюз1197100 5.1 101631
07:00+9юз2398100 7.2 1017131
10:00+13з348537 1.3 1017638
13:00+15з347489 2.3 10161149
16:00+16зюз336623 0.2 10161166
19:00+15зюз247885 0.8 1016348
22:00+10ю338848 0.3 101847
14 июня, пн
пн1401:00+9ююз348984 0.3 101852
04:00+9ююз3485100 0.0 101772
07:00+11ююз237997 0.0 1018103
10:00+13з1377100 0.2 1018454
13:00+13зсз1284100 0.3 1019160
16:00+12зсз1191100 0.1 1019150
19:00+14сз118463 0.1 1019328
22:00+10юв11957 0.0 102011
15 июня, вт
вт1501:00+9ююв22953 0.0 101922
04:00+8юв11940 0.0 101915
07:00+11в11915 0.0 102074
10:00+16ссв33685 0.0 1019897
13:00+18ссв345710 0.0 10191211
16:00+19св33551 0.0 10181195
19:00+18св23665 0.0 1018940
22:00+12юв22905 0.0 101813
16 июня, ср
ср1601:00+11ююв32935 0.0 101732
04:00+10ююв22930 0.0 101725
07:00+13ююв22862 0.0 101767
10:00+20св23562 0.0 1016779
13:00+22св34534 0.0 10151091
16:00+22св33545 0.0 10151064
19:00+21всв236614 0.0 1014573
22:00+15ююв328174 0.0 101428
17 июня, чт
чт1701:00+13ю228782 0.0 101422
04:00+13ю3286100 0.0 101333
07:00+16ю228136 0.0 101364
10:00+21ссз216297 0.0 1012546
13:00+24с225644 0.0 1011953
16:00+25ссз234896 0.0 10101071
19:00+24з12610 0.0 1009774
22:00+17ю32780 0.0 100926